Vernal, UT

7:32 AM MDT on July 24, 2017 (GMT -0600)
Vernal

Weather History for KVEL - September, 2012

Change the Weather History Date:

Sunday, September 2, 2012

  Actual Average Record
Temperature  
Mean Temperature 67 °F 66 °F  
Max Temperature 82 °F 80 °F 94 °F (1955)
Min Temperature 51 °F 51 °F 32 °F (1953)
Degree Days  
Heating Degree Days 0 2  
Month to date heating degree days 0 3  
Since 1 July heating degree days 0 19  
Cooling Degree Days 2 2  
Month to date cooling degree days 7 4  
Year to date cooling degree days 789 493  
Growing Degree Days 16 (Base 50)    
Moisture  
Dew Point 51 °F    
Average Humidity 60    
Maximum Humidity 93    
Minimum Humidity 26    
Precipitation  
Precipitation T in 0.03 in 1.30 in (1938)
Month to date precipitation 0.16 0.06  
Year to date precipitation 1.46 5.67  
Sea Level Pressure  
Sea Level Pressure 30.09 in    
Wind  
Wind Speed 3 mph (SSE)    
Max Wind Speed 10 mph    
Max Gust Speed 15 mph    
Visibility 10 miles    
Events      
T = Trace of Precipitation, MM = Missing Value Source: NWS Daily Summary

Daily Weather History Graph

Daily Weather History Graph

Search for Another Location

Airport or City:

Trip Planner

Search our weather history database for the weather conditions in past years. The results will help you decide how hot, cold, wet, or windy it might be!

Date:

Astronomy

Sep. 02, 2012 Rise Set
Actual Time 6:46 AM MDT 7:47 PM MDT
Civil Twilight 6:18 AM MDT 8:15 PM MDT
Nautical Twilight 5:45 AM MDT 8:48 PM MDT
Astronomical Twilight 5:11 AM MDT 9:22 PM MDT
Moon 8:35 PM MDT (9/2) 8:59 AM MDT (9/2)
Length of Visible Light 13h 56m
Length of Day
13h 00m
Waning Gibbous, 95% of the Moon is Illuminated
Sep 2
Waning Gibbous
Sep 8
Last Quarter
Sep 15
New
Sep 22
First Quarter
Sep 29
Full

Hourly Weather History & Observations

Time (MDT) Temp. Dew Point Humidity Pressure Visibility Wind Dir Wind Speed Gust Speed Precip Events Conditions
12:53 AM 57.0 °F 55.0 °F 93% 30.10 in 10.0 mi Calm Calm - N/A   Mostly Cloudy
2:53 AM 55.0 °F 52.0 °F 89% 30.06 in 10.0 mi WNW 6.9 mph - N/A   Clear
3:53 AM 57.0 °F 51.1 °F 81% 30.06 in 10.0 mi Calm Calm - N/A   Mostly Cloudy
4:53 AM 55.9 °F 51.1 °F 84% 30.10 in 10.0 mi West 4.6 mph - N/A   Mostly Cloudy
5:53 AM 55.0 °F 50.0 °F 83% 30.11 in 10.0 mi Calm Calm - N/A   Clear
6:53 AM 52.0 °F 48.9 °F 89% 30.14 in 10.0 mi Calm Calm - N/A   Clear
7:53 AM 55.9 °F 51.1 °F 84% 30.15 in 10.0 mi Calm Calm - N/A   Partly Cloudy
8:17 AM 57.2 °F 51.8 °F 82% 30.28 in 10.0 mi Calm Calm - N/A   Overcast
8:27 AM 57.2 °F 53.6 °F 88% 30.28 in 10.0 mi Calm Calm - N/A   Overcast
8:53 AM 57.0 °F 54.0 °F 89% 30.17 in 10.0 mi SSE 4.6 mph - N/A   Mostly Cloudy
9:33 AM 59.0 °F 55.4 °F 88% 30.28 in 10.0 mi Variable 3.5 mph - N/A   Overcast
9:53 AM 61.0 °F 55.0 °F 81% 30.16 in 10.0 mi Calm Calm - N/A   Mostly Cloudy
10:00 AM 60.8 °F 55.4 °F 82% 30.28 in 10.0 mi South 3.5 mph - N/A   Scattered Clouds
10:53 AM 64.9 °F 55.0 °F 70% 30.14 in 10.0 mi Calm Calm - N/A   Clear
11:53 AM 69.1 °F 53.1 °F 57% 30.12 in 10.0 mi SE 4.6 mph - N/A   Clear
12:53 PM 72.0 °F 55.0 °F 55% 30.08 in 10.0 mi Calm Calm - N/A   Clear
1:53 PM 75.0 °F 53.1 °F 46% 30.05 in 10.0 mi Variable 4.6 mph - N/A   Clear
2:53 PM 78.1 °F 52.0 °F 40% 30.01 in 10.0 mi South 8.1 mph - N/A   Clear
3:53 PM 80.1 °F 48.9 °F 34% 29.97 in 10.0 mi ESE 4.6 mph - N/A   Clear
4:53 PM 81.0 °F 43.0 °F 26% 29.96 in 10.0 mi Calm Calm - N/A   Clear
5:53 PM 80.1 °F 43.0 °F 27% 29.95 in 10.0 mi Calm Calm - N/A   Clear
6:53 PM 80.1 °F 44.1 °F 28% 29.95 in 10.0 mi NE 4.6 mph - N/A   Clear
7:53 PM 75.0 °F 46.0 °F 36% 29.95 in 10.0 mi Calm Calm - N/A   Clear
8:53 PM 70.0 °F 50.0 °F 49% 29.99 in 10.0 mi West 3.5 mph - N/A   Mostly Cloudy
9:53 PM 69.1 °F 46.0 °F 44% 30.02 in 10.0 mi ENE 8.1 mph - N/A   Partly Cloudy
10:53 PM 66.0 °F 46.9 °F 50% 30.02 in 10.0 mi Calm Calm - N/A   Partly Cloudy
11:53 PM 60.1 °F 51.1 °F 72% 30.02 in 10.0 mi Calm Calm - 0.00 in   Partly Cloudy